Вернуться в каталог

THOR ABLESTAR DEB

АктивенLEO
NORAD 13512·DEBRIS·🇺🇸 United States

Запущен Jun 29, 1961 с Cape Canaveral Space Force Station

Loading…

Ближайшие Пролёты (ближайшие 24 часа)

TLE

СвежийSource: Space-Track

Эпоха: Sep 14, 2026, 23:18 UTC

1 13512U 61015KV  26257.97110961  .00009470  00000-0  21532-2 0  9996
2 13512  65.4640  91.6730 0038088 250.6203 269.5576 14.55886294355757

Отслеживайте THOR ABLESTAR DEB в реальном времени с AllMySat

Download on the App Store